Location: Murdochville
(48.9591°N, 65.4950°W)
Time: 22:11:38
(UTC-04:00)

Envisat - Pass Details

Date: 24 April 2026
Orbit: 761 x 762 km, 98.4° (Epoch: 15 May)

Event Time Altitude Azimuth Distance (km) Brightness Sun altitude
Rises 01:36:29 0° 30° (NNE) 3,234 7.5 -25.9°
Reaches altitude 10° 01:39:54 10° 54° (NE) 2,301 6.2 -25.7°
Maximum altitude 01:42:38 15° 87° (E) 2,000 5.4 -25.5°
Drops below altitude 10° 01:45:22 10° 120° (ESE) 2,292 5.4 -25.4°
Enters shadow 01:45:28 10° 121° (ESE) 2,312 5.4 -25.4°
